User: anonymous   Login
Location: Unspecified
(0.0000°N, 0.0000°E)
Time: 04:44:36
(UTC+00:00)
Language:

Intelsat II F-3 - Orbit

View from above orbital plane
View from above orbital plane
View from above satellite
View from above satellite

Ground track
Ground track

The orbit data is extracted from the following two-line orbital elements,

1 02717U 67026A   18020.48443984 -.00000330  00000-0  00000+0 0  9999
2 02717   3.3361 303.6976 0023719 300.1867 179.7357  1.00328686 89455
Epoch (UTC): 20 January 2018 11:37:35
Eccentricity: 0.0023719
inclination: 3.3361°
perigee height: 35670 km
apogee height: 35870 km
right ascension of ascending node: 303.6976°
argument of perigee: 300.1867°
revolutions per day: 1.00328686
mean anomaly at epoch: 179.7357°
orbit number at epoch: 8945

The dashed part of the orbit path shows where the satellite is in the earth's shadow,  

DLR